Dumas, TX

12:32 PM CDT on July 27, 2017 (GMT -0500)
Moore County

Weather History for KDUX - May, 2013

Change the Weather History Date:

Tuesday, May 7, 2013

  Actual Average (KDHT) Record (KDHT)
Temperature  
Mean Temperature 62 °F -  
Max Temperature 82 °F 75 °F 93 °F (1962)
Min Temperature 43 °F 44 °F 34 °F (1999)
Degree Days  
Heating Degree Days 3    
Growing Degree Days 12 (Base 50)    
Moisture  
Dew Point 40 °F    
Average Humidity 53    
Maximum Humidity 92    
Minimum Humidity 13    
Precipitation  
Precipitation 0.03 in - - ()
Sea Level Pressure  
Sea Level Pressure 29.96 in    
Wind  
Wind Speed 13 mph (SSW)    
Max Wind Speed 25 mph    
Max Gust Speed 32 mph    
Visibility 10 miles    
Events      
Averages and records for this station are not official NWS values.
T = Trace of Precipitation, MM = Missing Value Source: NWS Daily Summary

Daily Weather History Graph

Daily Weather History Graph

Search for Another Location

Airport or City:

Trip Planner

Search our weather history database for the weather conditions in past years. The results will help you decide how hot, cold, wet, or windy it might be!

Date:

Astronomy

May. 07, 2013 Rise Set
Actual Time 6:49 AM CDT 8:40 PM CDT
Civil Twilight 6:21 AM CDT 9:08 PM CDT
Nautical Twilight 5:47 AM CDT 9:42 PM CDT
Astronomical Twilight 5:11 AM CDT 10:18 PM CDT
Moon 5:20 AM CDT (5/7) 6:45 PM CDT (5/7)
Length of Visible Light 14h 46m
Length of Day
13h 51m
Waning Crescent, 5% of the Moon is Illuminated
May 7
Waning Crescent
May 9
New
May 17
First Quarter
May 24
Full
May 31
Last Quarter

Hourly Weather History & Observations

Time (CDT) Temp. Windchill Dew Point Humidity Pressure Visibility Wind Dir Wind Speed Gust Speed Precip Events Conditions
12:15 AM 49.1 °F - 45.5 °F 87% 30.06 in 10.0 mi South 10.4 mph - N/A   Clear
12:35 AM 49.1 °F - 45.1 °F 86% 30.05 in 10.0 mi South 12.7 mph - N/A   Clear
12:55 AM 49.1 °F - 44.8 °F 85% 30.05 in 10.0 mi South 10.4 mph - N/A   Clear
1:15 AM 48.2 °F - 44.8 °F 88% 30.05 in 10.0 mi South 10.4 mph - N/A   Clear
1:35 AM 47.3 °F - 44.6 °F 90% 30.04 in 10.0 mi South 11.5 mph - N/A   Clear
1:55 AM 47.3 °F - 44.2 °F 89% 30.04 in 10.0 mi South 10.4 mph - N/A   Clear
2:15 AM 46.9 °F - 43.9 °F 89% 30.04 in 10.0 mi South 12.7 mph - N/A   Clear
2:35 AM 47.7 °F - 43.7 °F 86% 30.03 in 10.0 mi SSE 11.5 mph - N/A   Clear
2:55 AM 46.9 °F - 43.5 °F 88% 30.02 in 10.0 mi South 10.4 mph - N/A   Clear
3:15 AM 46.8 °F - 43.3 °F 88% 30.02 in 10.0 mi South 9.2 mph - N/A   Clear
3:35 AM 46.9 °F - 43.0 °F 86% 30.02 in 10.0 mi South 11.5 mph - N/A   Clear
3:55 AM 46.8 °F - 42.8 °F 86% 30.02 in 10.0 mi South 11.5 mph - N/A   Clear
4:15 AM 46.6 °F - 42.8 °F 87% 30.02 in 10.0 mi South 11.5 mph - N/A   Clear
4:35 AM 46.2 °F 42.2 °F 42.4 °F 87% 30.02 in 10.0 mi South 8.1 mph - N/A   Clear
5:15 AM 45.9 °F 41.7 °F 42.8 °F 89% 30.03 in 10.0 mi WSW 8.1 mph - N/A   Clear
5:35 AM 44.8 °F 41.6 °F 42.1 °F 90% 30.03 in 10.0 mi SW 5.8 mph - N/A   Clear
5:55 AM 44.6 °F 43.1 °F 42.1 °F 91% 30.03 in 10.0 mi WSW 3.5 mph - N/A   Clear
6:15 AM 44.8 °F 43.3 °F 42.3 °F 91% 30.03 in 10.0 mi SSW 3.5 mph - N/A   Clear
6:35 AM 43.2 °F 37.9 °F 41.0 °F 92% 30.03 in 10.0 mi SW 9.2 mph - N/A   Clear
6:55 AM 43.5 °F 37.5 °F 41.2 °F 91% 30.03 in 10.0 mi SW 11.5 mph - N/A   Clear
7:15 AM 44.1 °F 39.0 °F 41.4 °F 90% 30.03 in 10.0 mi SW 9.2 mph - N/A   Clear
7:35 AM 47.7 °F - 43.5 °F 86% 30.03 in 10.0 mi SW 13.8 mph - N/A   Clear
7:55 AM 50.2 °F - 44.6 °F 81% 30.03 in 10.0 mi SW 13.8 mph - N/A   Clear
8:15 AM 51.3 °F - 45.5 °F 81% 30.03 in 10.0 mi SW 12.7 mph - N/A   Clear
8:35 AM 54.0 °F - 45.9 °F 74% 30.03 in 10.0 mi SSW 15.0 mph 18.4 mph N/A   Clear
8:55 AM 54.9 °F - 45.7 °F 71% 30.03 in 10.0 mi SSW 17.3 mph - N/A   Clear
9:15 AM 55.9 °F - 45.0 °F 67% 30.03 in 10.0 mi SSW 18.4 mph 24.2 mph N/A   Clear
9:35 AM 57.4 °F - 45.7 °F 65% 30.03 in 10.0 mi SSW 18.4 mph 25.3 mph N/A   Clear
9:55 AM 58.3 °F - 45.5 °F 62% 30.03 in 10.0 mi SSW 20.7 mph - N/A   Clear
10:15 AM 59.7 °F - 46.2 °F 61% 30.03 in 10.0 mi SSW 18.4 mph 23.0 mph N/A   Clear
10:35 AM 61.0 °F - 46.4 °F 59% 30.02 in 10.0 mi SSW 17.3 mph - N/A   Clear
10:55 AM 62.4 °F - 46.6 °F 56% 30.02 in 10.0 mi SSW 18.4 mph 23.0 mph N/A   Clear
11:15 AM 64.0 °F - 46.9 °F 54% 30.01 in 10.0 mi SW 18.4 mph 25.3 mph N/A   Clear
11:35 AM 65.5 °F - 47.3 °F 52% 30.01 in 10.0 mi SSW 18.4 mph 23.0 mph N/A   Clear
11:55 AM 66.4 °F - 47.8 °F 51% 30.01 in 10.0 mi SSW 13.8 mph 18.4 mph N/A   Clear
12:15 PM 67.6 °F - 47.5 °F 48% 30.00 in 10.0 mi SSW 12.7 mph 18.4 mph N/A   Clear
12:35 PM 70.0 °F - 47.3 °F 44% 30.00 in 10.0 mi SSW 11.5 mph 18.4 mph N/A   Clear
12:55 PM 71.6 °F - 46.9 °F 41% 29.98 in 10.0 mi WSW 13.8 mph 18.4 mph N/A   Clear
1:15 PM 73.2 °F - 46.2 °F 38% 29.98 in 10.0 mi SSW 15.0 mph 20.7 mph N/A   Clear
1:35 PM 73.6 °F - 46.2 °F 38% 29.97 in 10.0 mi SSW 13.8 mph 19.6 mph N/A   Clear
1:55 PM 75.2 °F - 45.0 °F 34% 29.96 in 10.0 mi SSW 11.5 mph - N/A   Clear
2:15 PM 76.8 °F - 44.1 °F 31% 29.95 in 10.0 mi South 12.7 mph 21.9 mph N/A   Clear
2:35 PM 77.0 °F - 42.3 °F 29% 29.95 in 10.0 mi SW 17.3 mph 23.0 mph N/A   Clear
2:55 PM 78.3 °F - 41.4 °F 27% 29.93 in 10.0 mi SSW 9.2 mph 23.0 mph N/A   Clear
3:15 PM 79.7 °F - 37.6 °F 22% 29.92 in 10.0 mi South 15.0 mph 21.9 mph N/A   Clear
3:35 PM 80.6 °F - 33.6 °F 18% 29.91 in 10.0 mi SSW 17.3 mph 26.5 mph N/A   Clear
4:15 PM 81.0 °F - 27.9 °F 14% 29.90 in 10.0 mi SSW 16.1 mph 31.1 mph N/A   Clear
4:35 PM 81.3 °F - 25.9 °F 13% 29.89 in 10.0 mi SW 23.0 mph 32.2 mph N/A   Clear
4:55 PM 81.3 °F - 28.6 °F 15% 29.89 in 10.0 mi SSW 25.3 mph 31.1 mph N/A   Clear
5:15 PM 81.5 °F - 26.4 °F 13% 29.88 in 10.0 mi SW 24.2 mph 29.9 mph N/A   Clear
5:35 PM 81.0 °F - 27.3 °F 14% 29.88 in 10.0 mi SSW 21.9 mph 29.9 mph N/A   Clear
5:55 PM 81.5 °F - 28.8 °F 15% 29.87 in 10.0 mi SSW 18.4 mph 21.9 mph N/A   Clear
6:15 PM 81.3 °F - 31.3 °F 16% 29.86 in 10.0 mi SW 15.0 mph 20.7 mph N/A   Clear
6:35 PM 80.8 °F - 31.6 °F 17% 29.86 in 10.0 mi SSW 13.8 mph 23.0 mph N/A   Clear
6:55 PM 80.8 °F - 30.9 °F 16% 29.85 in 10.0 mi SSW 13.8 mph 20.7 mph N/A   Clear
7:15 PM 80.1 °F - 28.6 °F 15% 29.85 in 10.0 mi SW 17.3 mph - N/A   Clear
7:35 PM 79.5 °F - 26.8 °F 14% 29.85 in 10.0 mi SW 16.1 mph 21.9 mph N/A   Clear
7:55 PM 78.1 °F - 27.5 °F 16% 29.85 in 10.0 mi SW 16.1 mph - N/A   Clear
8:15 PM 76.5 °F - 28.6 °F 17% 29.86 in 10.0 mi SSW 13.8 mph - N/A   Clear
8:35 PM 72.9 °F - 27.9 °F 19% 29.86 in 10.0 mi SSW 11.5 mph - N/A   Clear
8:55 PM 67.5 °F - 28.0 °F 23% 29.86 in 10.0 mi SSW 5.8 mph - N/A   Clear
9:15 PM 64.0 °F - 30.0 °F 28% 29.87 in 10.0 mi SSW 10.4 mph - N/A   Clear
9:35 PM 61.2 °F - 31.5 °F 33% 29.87 in 10.0 mi South 9.2 mph - N/A   Clear
9:55 PM 58.6 °F - 31.1 °F 35% 29.88 in 10.0 mi South 10.4 mph - N/A   Clear
10:15 PM 59.0 °F - 34.0 °F 39% 29.88 in 10.0 mi South 10.4 mph - N/A   Clear
10:35 PM 60.1 °F - 35.8 °F 40% 29.89 in 10.0 mi South 11.5 mph - N/A   Clear
10:55 PM 61.7 °F - 37.8 °F 41% 29.89 in 10.0 mi South 10.4 mph - N/A   Clear
11:15 PM 66.2 °F - 39.4 °F 37% 29.89 in 10.0 mi SSE 15.0 mph - N/A   Clear
11:35 PM 66.2 °F - 41.4 °F 40% 29.89 in 10.0 mi SSE 15.0 mph - N/A   Clear
11:55 PM 63.5 °F - 41.4 °F 44% 29.89 in 10.0 mi SSE 12.7 mph - N/A   Clear